Powrót do katalogu

FREGAT DEB

LostUNKNOWN
NORAD 46239·DEBRIS·🇷🇺 Russia

Wystrzelony Jul 18, 2011 z Baikonur Cosmodrome

Loading…

Następne Przeloty (najbliższe 24 godziny)

TLE

NieaktualneSource: Space-Track

Epoka: Apr 13, 2022, 00:40 UTC

1 46239U 11037JZ  22103.02836012  .00654787  00000-0  43183+0 0  9991
2 46239  51.2512 120.1503 1772960 317.1694  30.3540 11.19506787  8791

Śledź FREGAT DEB w czasie rzeczywistym z AllMySat

Download on the App Store